{"data":{"norad_id":53213,"epoch":"2026-05-25T03:30:52.197408Z","epoch_age_seconds":52440,"freshness":"FRESH","line1":"1 53213U 22084AA  26145.14643747 -.00001921  00000+0 -12918-3 0  9992","line2":"2 53213  97.4520 205.0980 0000692 301.1627  58.9533 15.05635936211330","mean_motion":15.05635936,"eccentricity":6.92e-5,"inclination_deg":97.452,"raan_deg":205.098,"arg_perigee_deg":301.1627,"mean_anomaly_deg":58.9533,"bstar":-0.00012918,"rev_number":21133,"period_min":95.640650277359,"perigee_km":549.07489806303,"apogee_km":550.03369053816,"semimajor_km":6927.6912943006,"source":"CELESTRAK","updated_at":"2026-05-25T13:38:17.354470Z"}}